Cambridge, MD

8:47 PM EDT on May 26, 2017 (GMT -0400)
Cambridge-Dorchester

Weather History for KCGE - March, 2014

Change the Weather History Date:

Sunday, March 30, 2014

  Actual Average (KESN) Record (KESN)
Temperature  
Mean Temperature 48 °F -  
Max Temperature 59 °F 59 °F 82 °F (1963)
Min Temperature 37 °F 40 °F 27 °F (1955)
Degree Days  
Heating Degree Days 17    
Moisture  
Dew Point 43 °F    
Average Humidity 87    
Maximum Humidity 94    
Minimum Humidity 76    
Precipitation  
Precipitation 0.00 in - - ()
Sea Level Pressure  
Sea Level Pressure 29.57 in    
Wind  
Wind Speed 12 mph (NW)    
Max Wind Speed 22 mph    
Max Gust Speed 32 mph    
Visibility 4 miles    
Events      
Averages and records for this station are not official NWS values.
T = Trace of Precipitation, MM = Missing Value Source: NWS Daily Summary

Daily Weather History Graph

Daily Weather History Graph

Search for Another Location

Airport or City:

Trip Planner

Search our weather history database for the weather conditions in past years. The results will help you decide how hot, cold, wet, or windy it might be!

Date:

Astronomy

Mar. 30, 2014 Rise Set
Actual Time 6:52 AM EDT 7:25 PM EDT
Civil Twilight 6:25 AM EDT 7:52 PM EDT
Nautical Twilight 5:54 AM EDT 8:23 PM EDT
Astronomical Twilight 5:21 AM EDT 8:56 PM EDT
Moon 6:36 AM EDT (3/30) 7:35 PM EDT (3/30)
Length of Visible Light 13h 26m
Length of Day
12h 33m
Waning Crescent, 0% of the Moon is Illuminated
Mar 30
Waning Crescent
Mar 30
New
Apr 7
First Quarter
Apr 15
Full
Apr 22
Last Quarter

Hourly Weather History & Observations

Time (EDT) Temp. Windchill Dew Point Humidity Pressure Visibility Wind Dir Wind Speed Gust Speed Precip Events Conditions
12:05 AM 57.2 °F - 55.4 °F 94% 29.58 in 1.2 mi SE 8.1 mph - N/A   Overcast
12:25 AM 55.4 °F - 53.6 °F 94% 29.57 in 0.8 mi SE 9.2 mph - N/A   Overcast
12:45 AM 55.4 °F - 53.6 °F 94% 29.57 in 0.8 mi SE 9.2 mph - N/A   Overcast
1:05 AM 55.4 °F - 53.6 °F 94% 29.55 in 0.5 mi SSE 9.2 mph - N/A   Overcast
1:25 AM 55.4 °F - 53.6 °F 94% 29.54 in 0.5 mi SSE 9.2 mph - N/A   Overcast
1:45 AM 57.2 °F - 55.4 °F 94% 29.53 in 0.5 mi SSE 8.1 mph - N/A   Overcast
2:05 AM 59.0 °F - 55.4 °F 88% 29.51 in 0.8 mi SSE 3.5 mph - N/A   Overcast
2:25 AM 59.0 °F - 55.4 °F 88% 29.50 in 0.8 mi Calm Calm - N/A   Overcast
2:45 AM 59.0 °F - 55.4 °F 88% 29.48 in 0.8 mi SE 5.8 mph - N/A   Overcast
3:45 AM 59.0 °F - 55.4 °F 88% 29.45 in 1.0 mi ESE 4.6 mph - N/A   Overcast
4:05 AM 59.0 °F - 55.4 °F 88% 29.45 in 4.0 mi SSE 3.5 mph - N/A   Overcast
4:25 AM 59.0 °F - 55.4 °F 88% 29.44 in 3.0 mi Calm Calm - N/A   Overcast
4:45 AM 59.0 °F - 55.4 °F 88% 29.44 in 4.0 mi SE 4.6 mph - N/A   Overcast
5:25 AM 51.8 °F - 48.2 °F 88% 29.45 in 10.0 mi WNW 9.2 mph 16.1 mph N/A   Overcast
5:45 AM 51.8 °F - 48.2 °F 88% 29.46 in 5.0 mi WNW 11.5 mph 17.3 mph N/A   Overcast
6:05 AM 51.8 °F - 48.2 °F 88% 29.46 in 4.0 mi NW 9.2 mph - N/A   Overcast
6:25 AM 51.8 °F - 48.2 °F 88% 29.47 in 3.0 mi WNW 8.1 mph - N/A   Overcast
6:46 AM 51.8 °F - 48.2 °F 88% 29.46 in 3.0 mi NW 8.1 mph - N/A   Overcast
7:06 AM 51.8 °F - 48.2 °F 88% 29.47 in 2.5 mi NW 10.4 mph 16.1 mph N/A   Overcast
7:26 AM 51.8 °F - 48.2 °F 88% 29.48 in 4.0 mi WNW 11.5 mph 17.3 mph N/A   Overcast
7:46 AM 50.0 °F - 46.4 °F 87% 29.48 in 1.0 mi NW 15.0 mph 19.6 mph N/A   Overcast
8:06 AM 48.2 °F - 46.4 °F 93% 29.48 in 1.8 mi NW 10.4 mph 23.0 mph N/A   Overcast
8:26 AM 48.2 °F - 46.4 °F 93% 29.48 in 3.0 mi NW 11.5 mph 19.6 mph N/A   Overcast
8:46 AM 50.0 °F - 46.4 °F 87% 29.49 in 7.0 mi NW 12.7 mph 19.6 mph N/A   Overcast
9:06 AM 48.2 °F - 44.6 °F 87% 29.50 in 4.0 mi NW 17.3 mph 28.8 mph N/A   Overcast
9:26 AM 46.4 °F 40.4 °F 42.8 °F 87% 29.51 in 10.0 mi NW 13.8 mph 24.2 mph N/A   Overcast
9:46 AM 46.4 °F 40.7 °F 42.8 °F 87% 29.52 in 5.0 mi NW 12.7 mph 19.6 mph N/A   Overcast
10:06 AM 44.6 °F 38.4 °F 42.8 °F 93% 29.52 in 5.0 mi NW 12.7 mph 20.7 mph N/A   Overcast
10:26 AM 44.6 °F 36.9 °F 41.0 °F 87% 29.53 in 4.0 mi NW 18.4 mph 24.2 mph N/A   Overcast
10:46 AM 44.6 °F 37.4 °F 41.0 °F 87% 29.53 in 4.0 mi NW 16.1 mph 26.5 mph N/A   Overcast
11:06 AM 44.6 °F 37.2 °F 41.0 °F 87% 29.53 in 5.0 mi NW 17.3 mph 26.5 mph N/A   Overcast
11:26 AM 44.6 °F 36.6 °F 41.0 °F 87% 29.53 in 5.0 mi NW 19.6 mph 26.5 mph N/A   Overcast
11:46 AM 44.6 °F 36.4 °F 41.0 °F 87% 29.53 in 10.0 mi NW 20.7 mph 28.8 mph N/A   Mostly Cloudy
12:06 PM 44.6 °F 36.4 °F 39.2 °F 81% 29.53 in 10.0 mi NW 20.7 mph 27.6 mph N/A   Mostly Cloudy
12:26 PM 44.6 °F 37.4 °F 37.4 °F 76% 29.53 in 10.0 mi NW 16.1 mph 32.2 mph N/A   Mostly Cloudy
12:46 PM 42.8 °F 34.3 °F 37.4 °F 81% 29.54 in 10.0 mi NW 19.6 mph 24.2 mph N/A   Mostly Cloudy
1:06 PM 42.8 °F 34.3 °F 37.4 °F 81% 29.55 in 10.0 mi NW 19.6 mph 27.6 mph N/A   Mostly Cloudy
1:26 PM 42.8 °F 35.4 °F 37.4 °F 81% 29.57 in 5.0 mi NW 15.0 mph 24.2 mph N/A   Overcast
1:46 PM 42.8 °F 34.3 °F 37.4 °F 81% 29.57 in 2.0 mi NW 19.6 mph 26.5 mph N/A   Overcast
2:06 PM 42.8 °F 35.1 °F 37.4 °F 81% 29.56 in 1.5 mi NW 16.1 mph 23.0 mph N/A   Overcast
2:26 PM 42.8 °F 33.8 °F 37.4 °F 81% 29.56 in 2.0 mi NW 21.9 mph 28.8 mph N/A   Overcast
2:46 PM 42.8 °F 34.3 °F 37.4 °F 81% 29.56 in 2.0 mi NW 19.6 mph 28.8 mph N/A   Overcast
3:06 PM 41.0 °F 31.4 °F 37.4 °F 87% 29.56 in 4.0 mi NW 21.9 mph 32.2 mph N/A   Overcast
3:27 PM 42.8 °F 35.1 °F 37.4 °F 81% 29.57 in 2.5 mi WNW 16.1 mph 23.0 mph N/A   Overcast
3:47 PM 41.0 °F 33.1 °F 37.4 °F 87% 29.57 in 2.0 mi NW 15.0 mph 27.6 mph N/A   Overcast
4:07 PM 41.0 °F 33.1 °F 37.4 °F 87% 29.58 in 2.5 mi NW 15.0 mph 27.6 mph N/A   Overcast
4:27 PM 41.0 °F 32.5 °F 37.4 °F 87% 29.59 in 3.0 mi NW 17.3 mph 20.7 mph N/A   Overcast
4:47 PM 41.0 °F 32.8 °F 37.4 °F 87% 29.60 in 3.0 mi NW 16.1 mph 25.3 mph N/A   Overcast
5:07 PM 41.0 °F 32.8 °F 37.4 °F 87% 29.61 in 2.5 mi WNW 16.1 mph 23.0 mph N/A   Overcast
5:27 PM 41.0 °F 31.6 °F 37.4 °F 87% 29.62 in 2.0 mi NW 20.7 mph 31.1 mph N/A   Overcast
5:47 PM 39.2 °F 29.3 °F 35.6 °F 87% 29.63 in 2.5 mi WNW 20.7 mph 29.9 mph N/A   Overcast
6:07 PM 37.4 °F 29.3 °F 35.6 °F 93% 29.64 in 2.5 mi WNW 12.7 mph 28.8 mph N/A   Overcast
6:27 PM 37.4 °F 28.5 °F 35.6 °F 93% 29.65 in 2.0 mi WNW 15.0 mph 25.3 mph N/A   Overcast
6:47 PM 37.4 °F 28.2 °F 35.6 °F 93% 29.66 in 3.0 mi NW 16.1 mph 23.0 mph N/A   Overcast
7:07 PM 37.4 °F 28.2 °F 35.6 °F 93% 29.66 in 2.0 mi NW 16.1 mph 25.3 mph N/A   Overcast
7:27 PM 37.4 °F 28.9 °F 35.6 °F 93% 29.67 in 2.5 mi NW 13.8 mph 21.9 mph N/A   Overcast
7:47 PM 37.4 °F 28.5 °F 35.6 °F 93% 29.68 in 4.0 mi NW 15.0 mph 23.0 mph N/A   Overcast
8:07 PM 39.2 °F 30.2 °F 35.6 °F 87% 29.70 in 7.0 mi NW 17.3 mph 23.0 mph N/A   Overcast
8:27 PM 39.2 °F 30.5 °F 35.6 °F 87% 29.71 in 5.0 mi NW 16.1 mph 27.6 mph N/A   Overcast
8:47 PM 39.2 °F 30.5 °F 35.6 °F 87% 29.71 in 5.0 mi NW 16.1 mph 27.6 mph N/A   Overcast
9:07 PM 41.0 °F 32.8 °F 37.4 °F 87% 29.72 in 10.0 mi NW 16.1 mph 27.6 mph N/A   Mostly Cloudy
9:27 PM 41.0 °F 32.8 °F 37.4 °F 87% 29.73 in 5.0 mi NW 16.1 mph 24.2 mph N/A   Overcast
9:47 PM 41.0 °F 32.8 °F 37.4 °F 87% 29.73 in 7.0 mi NNW 16.1 mph 25.3 mph N/A   Overcast
10:07 PM 41.0 °F 33.5 °F 35.6 °F 81% 29.74 in 7.0 mi NW 13.8 mph 26.5 mph N/A   Overcast
10:27 PM 41.0 °F 32.8 °F 37.4 °F 87% 29.74 in 7.0 mi NW 16.1 mph 27.6 mph N/A   Overcast
10:47 PM 41.0 °F 32.5 °F 37.4 °F 87% 29.75 in 7.0 mi NW 17.3 mph 24.2 mph N/A   Overcast
11:07 PM 41.0 °F 32.8 °F 35.6 °F 81% 29.75 in 10.0 mi NW 16.1 mph 25.3 mph N/A   Overcast
11:27 PM 41.0 °F 33.1 °F 35.6 °F 81% 29.76 in 10.0 mi NW 15.0 mph 26.5 mph N/A   Mostly Cloudy
11:47 PM 41.0 °F 32.5 °F 35.6 °F 81% 29.77 in 10.0 mi NW 17.3 mph 28.8 mph N/A   Mostly Cloudy